Content
SEND FEEDBACK

Daily
Averages
Monthly
Summary
Turkey

GAZIANTEP, TURKEY


Home > Middle East > Turkey
Elevation: 2805 feet     Latitude: 37 05N     Longitude: 037 22E

WEATHER
 
SELECT A DAY
Number of Records: 211,784;   Date Range: 7/1/96 - 9/30/14
 
SHARE

PRINT THIS DATA

[ ← Previous Day ]
WEATHER ALMANAC - MARCH 15, 2013
[ Next Day → ]
[ °C ]   °F
Weather ElementAverageHighLow
Temperature62.8 °F71.6 °F (12:20 pm)48.2 °F (12:50 am)
Dewpoint38.6 °F44 °F (2:00 am)32 °F (6:20 pm)
Humidity43.1 %76 % (12:50 am)20 % (8:00 pm)
Barometer29.96 in30.06 in (7:50 am)29.80 in (11:20 pm)
Wind Speed9.9 mph19.6 mph (11:20 am)
Weather ElementAverage
Visibility2.9 mi
Wind DirectionESE (103.9 °)

Weather ElementTotal
Precipitation---
Heating Degree Days5.1 (Base 65)
Growing Degree Days9.9 (Base 50)
Averaged from 51 records on March 15, 2013
WEATHER CONDITIONS BREAKOUT
WIND DIRECTION BREAKOUT
WEATHER BY HOUR - MARCH 15, 2013
[ °C ]   °F
Local TimeTemperatureDewpointHumidityBarometerVisibilityWind DirectionWind SpeedGust SpeedPrecipitationEventsConditions
12:50 AM48.2 °F41.0 °F76 %30.04 inCalmClear
1:20 AM51.8 °F42.8 °F71 %30.01 inNorth (360°)5.8 mphClear
1:50 AM51.8 °F42.8 °F71 %30.04 inWNW (300°)4.6 mphClear
2:00 AM51.0 °F44.0 °F68 %29.99 in6.0 miWNW (300°)4.6 mph
2:20 AM50.0 °F42.8 °F76 %30.04 inWest (280°)4.6 mphClear
2:50 AM51.8 °F42.8 °F71 %30.01 inNorth (10°)3.5 mphClear
3:20 AM48.2 °F41.0 °F76 %30.01 inCalmClear
3:50 AM51.8 °F41.0 °F67 %30.01 inNW (320°)3.5 mphClear
4:20 AM53.6 °F41.0 °F62 %30.04 inVariable1.2 mphClear
4:50 AM51.8 °F41.0 °F67 %30.04 inNorth (350°)4.6 mphClear
5:20 AM50.0 °F41.0 °F71 %30.04 inNNW (340°)3.5 mphClear
5:50 AM53.6 °F41.0 °F62 %30.04 inNorth (360°)5.8 mphClear
6:20 AM51.8 °F41.0 °F67 %30.04 inNorth (10°)10.4 mphClear
6:50 AM53.6 °F41.0 °F62 %30.04 inNorth (10°)6.9 mphClear
7:20 AM55.4 °F41.0 °F58 %30.04 inNNW (340°)5.8 mphClear
7:50 AM59.0 °F39.2 °F48 %30.06 inNNE (30°)8.1 mphClear
8:00 AM59.0 °F40.0 °F37 %30.02 in6.0 miNNE (30°)8.1 mphClear
8:20 AM60.8 °F39.2 °F45 %30.06 inENE (60°)6.9 mphClear
8:50 AM62.6 °F39.2 °F42 %30.06 inENE (60°)8.1 mphClear
9:20 AM64.4 °F37.4 °F37 %30.06 inENE (70°)12.7 mphClear
9:50 AM64.4 °F37.4 °F37 %30.04 inENE (70°)15.0 mphClear
10:20 AM66.2 °F37.4 °F35 %30.04 inENE (70°)18.4 mphClear
10:50 AM68.0 °F37.4 °F33 %30.04 inEast (80°)18.4 mphClear
11:20 AM68.0 °F39.2 °F35 %30.01 in4.3 miEast (80°)19.6 mph
11:50 AM69.8 °F37.4 °F31 %30.01 in4.3 miEast (80°)18.4 mph
12:20 PM71.6 °F41.0 °F33 %30.01 in3.7 miEast (80°)17.3 mph
12:50 PM71.6 °F41.0 °F33 %29.98 in2.5 miEast (90°)15.0 mphMostly Cloudy
1:20 PM71.6 °F39.2 °F31 %29.98 in2.5 miEast (90°)16.1 mphMostly Cloudy
1:50 PM71.6 °F41.0 °F33 %29.95 in2.5 miEast (90°)16.1 mphMostly Cloudy
2:00 PM71.0 °F41.0 °F23 %29.91 in2.0 miEast (90°)16.1 mphBlowing Sand
2:20 PM71.6 °F41.0 °F33 %29.95 in2.5 miEast (90°)16.1 mphMostly Cloudy
2:50 PM71.6 °F41.0 °F33 %29.92 in2.5 miEast (80°)13.8 mphMostly Cloudy
3:20 PM71.6 °F35.6 °F27 %29.92 in2.5 miEast (90°)13.8 mphMostly Cloudy
3:50 PM71.6 °F37.4 °F29 %29.92 in2.5 miEast (80°)12.7 mphMostly Cloudy
4:20 PM71.6 °F37.4 °F29 %29.89 in2.5 miEast (80°)13.8 mphMostly Cloudy
4:50 PM71.6 °F35.6 °F27 %29.89 in2.5 miEast (80°)13.8 mphMostly Cloudy
5:20 PM69.8 °F35.6 °F28 %29.86 in2.5 miEast (80°)13.8 mphMostly Cloudy
5:50 PM69.8 °F33.8 °F27 %29.86 in2.5 miEast (90°)16.1 mphMostly Cloudy
6:20 PM69.8 °F32.0 °F25 %29.86 in2.5 miEast (80°)16.1 mphMostly Cloudy
6:50 PM68.0 °F32.0 °F26 %29.86 in2.5 miEast (80°)15.0 mphMostly Cloudy
7:20 PM68.0 °F32.0 °F26 %29.86 in2.5 miENE (60°)11.5 mphMostly Cloudy
7:50 PM66.2 °F35.6 °F32 %29.89 in2.5 miNNE (20°)6.9 mphMostly Cloudy
8:00 PM67.0 °F35.0 °F20 %29.82 in2.0 miNNE (20°)6.9 mphBlowing Sand
8:20 PM66.2 °F35.6 °F32 %29.89 in2.5 miNE (50°)8.1 mphMostly Cloudy
8:50 PM66.2 °F35.6 °F32 %29.86 in2.5 miNE (50°)6.9 mphMostly Cloudy
9:20 PM66.2 °F37.4 °F35 %29.86 in2.5 miNNE (30°)4.6 mphMostly Cloudy
9:50 PM64.4 °F39.2 °F40 %29.86 in2.5 miNorth (10°)5.8 mphMostly Cloudy
10:20 PM64.4 °F37.4 °F37 %29.83 in2.5 miNNE (30°)11.5 mphMostly Cloudy
10:50 PM64.4 °F35.6 °F34 %29.83 in2.5 miNE (40°)6.9 mphMostly Cloudy
11:20 PM62.6 °F35.6 °F37 %29.80 in2.5 miNNE (20°)4.6 mphMostly Cloudy
11:50 PM64.4 °F33.8 °F32 %29.80 in2.5 miEast (90°)4.6 mphMostly Cloudy
Hourly data recorded from LTAJ, located miles away from Gaziantep, Turkey







STORIES FROM OUR PARTNERS